225  
ASUS44 KEWX 021611  
RWREWX  
SOUTH TEXAS REGIONAL WEATHER ROUNDUP  
NATIONAL WEATHER SERVICE AUSTIN/SAN ANTONIO TX  
1100 AM CDT THU JUL 02 2020  
 
NOTE: "FAIR" INDICATED FEW OR NO CLOUDS BELOW 12,000 FEET WITH NO  
SIGNIFICANT WEATHER AND/OR S TO VISIBILITY
.  
 
* - THESE STATIONS ARE NOT NWS OR FAA STATIONS...AND ARE NOT SUBJECT  
TO NWS AND FAA QUALITY CONTROL.
 
 
TXZ171-172-183>190-021700-  
TEXAS HILL COUNTRY AND EDWARDS PLATEAU  
 
CITY SKY/WX TMP DP RH WIND PRES REMARKS
 
JUNCTION CLOUDY 80 75 84 S9 30.04R  
*LLANO PTSUNNY 84 73 70 SW7 30.04R HX 91  
BURNET PTSUNNY 85 70 60 SW12 30.03R  
*HORSESHOE BAY PTSUNNY 86 70 58 SW12 30.01R HX 90  
*LAGO VISTA MOSUNNY 86 72 64 SW9 30.02R HX 92  
*KERRVILLE MOSUNNY 83 73 71 S13 30.03R  
*FREDERICKSBRG PTSUNNY 82 71 67 SW10G18 30.04R  
*ROCKSPRINGS CLOUDY 75 73 94 S8 30.10R  
*BOERNE MOSUNNY 82 70 65 S12G17 30.04R  
*CASTROVILLE SUNNY 89 69 50 MISG 30.00S HX 93  
HONDO MOSUNNY 88 69 53 S15G24 29.99R HX 92  
*UVALDE N/A 88 70 55 SE10G16 29.99S HX 92  
DEL RIO CLOUDY 84 76 76 VRB7 29.97R HX 93  
*LAUGHLIN AFB MOSUNNY 82 75 78 SE12 29.97S  
*SPOFFORD NOT AVBL  
*EAGLE PASS NOT AVBL  
CARRIZO SPRGS MOSUNNY 90 68 48 S13 29.94R HX 93  

 
 
TXZ173-191>194-202-209-217>225-228-021700-  
CENTRAL AND SOUTH CENTRAL TEXAS  
 
CITY SKY/WX TMP DP RH WIND PRES REMARKS
 
GEORGETOWN PTSUNNY 87 73 62 S13 30.02R HX 94  
*TAYLOR PTSUNNY 87 75 67 SW12 30.00R HX 95  
AUSTIN/BERGSTM PTSUNNY 87 76 69 S14 29.99R HX 97  
AUSTIN/MABRY MOSUNNY 86 73 65 VRB6 30.01R HX 93  
*PFLUGERVILLE MOSUNNY 86 73 66 SW10 30.01R HAZE HX 93  
SAN MARCOS MOSUNNY 88 74 63 S15 30.00R HX 96  
NEW BRAUNFELS SUNNY 90 71 53 SW13 29.99R HX 96  
*RANDOLPH AFB MOSUNNY 87 71 58 S12 29.99R HX 93  
*SEGUIN SUNNY 86 72 62 SW9 30.03R HX 92  
SAN ANTONIO PTSUNNY 87 71 58 S14 30.00R HX 93  
STINSON FIELD SUNNY 86 71 60 SW13 29.96S HX 91  
*KELLY FIELD MOSUNNY 87 71 58 S13 29.97R HX 92  
*PLEASANTON SUNNY 87 74 63 S9 29.98S HX 95  
*KENEDY MOSUNNY 86 74 66 S12G21 29.99R HX 94  
*LA GRANGE MOSUNNY 90 75 59 SW13 29.98R HAZE HX 100  
*GIDDINGS SUNNY 87 72 61 SW8G16 30.01R HX 93  
*GONZALES CLOUDY 88 75 63 S10G18 29.99S HX 98  

 
 
TXZ163>164-176>182-195>201-210>213-226-227-235-021700-  
SOUTHEAST TEXAS  
 
CITY SKY/WX TMP DP RH WIND PRES REMARKS
 
COLLEGE STN LGT RAIN 88 74 63 SW9 30.00R HX 96  
*BRYAN PTSUNNY 89 77 66 S9 30.02R HX 101  
*CALDWELL PTSUNNY 89 75 64 S10 30.00R HX 98  
*CROCKETT NOT AVBL  
*BRENHAM PTSUNNY 87 76 67 SW9G16 30.00R HX 97  
HUNTSVILLE MOSUNNY 88 74 63 VRB6 30.00F HX 96  
CONROE PTSUNNY 87 74 64 SW9 30.01R HX 95  
HOUSTON BUSH PTSUNNY 90 74 59 SW8 29.99S HX 99  
HOUSTON HOBBY MOSUNNY 90 75 61 S12 29.99S HX 100  
*HOUSTON SW AP MOSUNNY 86 78 77 SW3 30.00S HX 98  
PEARLAND MOSUNNY 89 74 60 S8 30.01R HX 98  
HOUSTON HOOKS SUNNY 87 73 62 SW8 29.99S HX 94  
ELLINGTON FLD PTSUNNY 88 75 66 S10 29.99R HX 97  
SUGAR LAND MOSUNNY 90 78 68 S7 29.99R HX 104  
*HOUSTON EXEC SUNNY 88 77 70 SW9 30.01R HX 100  
*CLEVELAND MUN SUNNY 88 75 64 W5 30.01S HAZE HX 98  
*WHARTON MOSUNNY 88 71 56 S12 30.00R HX 94  
*COLUMBUS FAIR 87 76 69 S10 30.00S HX 97  
*EAGLE LAKE MOSUNNY 90 78 67 SW12G21 29.99 HX 103  

 
 
TXZ214>216-236>238-021700-  
THE UPPER TEXAS COAST  
 
CITY SKY/WX TMP DP RH WIND PRES REMARKS
 
*ORANGE MOSUNNY 90 75 60 SW7 30.02S HX 100  
PORT ARTHUR MOSUNNY 88 77 69 S9 30.00R HX 100  
GALVESTON PTSUNNY 89 79 72 S10 30.01R HX 104  
ANGLETON CLOUDY 89 76 65 SW8G17 29.99R HX 100  
*BAY CITY MOSUNNY 91 77 65 SW12 29.99R HX 104  
PALACIOS CLOUDY 88 78 72 S10 29.99R HX 101  

 
 
TXZ229>234-239>247-021700-  
TEXAS COASTAL BEND AND RIO GRANDE PLAINS  
 
CITY SKY/WX TMP DP RH WIND PRES REMARKS
 
VICTORIA CLOUDY 89 75 63 SW12 29.99R HX 99  
*BEEVILLE MOSUNNY 88 77 69 S15 29.97S HX 101  
ROCKPORT MOSUNNY 88 76 67 S9 29.98R HAZE HX 99  
*PORT ARANSAS CLOUDY 86 79 79 S12 30.00R HX 99  
*PORT LAVACA SUNNY 91 80 70 S13G20 30.00R HAZE HX 108  
*INGLESIDE MOSUNNY 88 78 72 SW16 29.98R HX 102  
CORPUS CHRISTI PTSUNNY 86 76 71 S14 29.97R HX 96  
CORPUS NAS MOSUNNY 88 79 74 S16G23 29.98R HX 103  
*ROBSTOWN MOSUNNY 88 76 67 S13 29.98R HX 98  
ALICE PTSUNNY 90 74 59 S13 29.97R HX 99  
KINGSVILLE NAS PTSUNNY 90 73 57 S15 29.96R HX 98  
COTULLA MOSUNNY 92 72 51 SE13G23 29.95R HX 99  
LAREDO MOSUNNY 90 72 55 S16 29.93S HX 97  

 
 
TXZ248>255-021700-  
DEEP SOUTH TEXAS  
 
CITY SKY/WX TMP DP RH WIND PRES REMARKS
 
BROWNSVILLE N/A 89 75 63 S16 29.95R HX 99  
PORT ISABEL MOSUNNY 90 73 57 S17 29.94S HX 98  
HARLINGEN MOSUNNY 90 75 61 S16 29.94S HX 100  
*HEBBRONVILLE SUNNY 88 66 48 S10G18 29.98R HX 90  
MCALLEN MOSUNNY 90 74 59 SE17 29.95R HX 99  
*WESLACO MOSUNNY 88 73 61 S17 29.95 HX 95  
FALFURRIAS NOT AVBL  
EDINBURG MOSUNNY 89 72 56 S15G21 29.96R HX 95  
*ZAPATA MOSUNNY 91 72 52 S12G17 29.95S HAZE HX 98  

 
 
TXZ213>215-236>238-242>244-246-247-251-254-255-021700-  
CMAN STATIONS  
 
STATION/POSITION TIME TEMP WIND PRES WAVE
 
AIR SEA DIR/SP/G HT/PER  
(UTC) (F) (DEG/KT/KT) (MB) (FT/S)  
SABINE PASS 1530 87 86 220/ 7/ 11 1017.7  
NORTH JETTY/GLS 1530 86 84 200/ 11/ 12 1014.9  
EAGLE POINT 1530 86 85 190/ 8/ 12 1015.2  
MORGANS POINT 1530 87 86 140/ 5/ 9 1015.7  
PORT O'CONNOR 1524 84 86 180/ 11/ 13 1014.9  
PORT ARANSAS 1600 82 84 160/ 11/ 12 1015.3  
MALAQUITE BEACH 1524 82 160/ 7/ 9 N/A  
BAFFIN BAY 1530 83 86 140/ 12/ 14 1015.1  
PORT ISABEL 1530 87 82 180/ 13/ 18 1015.9  

 
 
 
CLICK HERE TO GO TO PREVIOUS BULLETINS.

The Nexlab TX Page Main Text Page